This is the latest recevied weather packets stored in our database for station/object KC4JIR. If no packets are shown the sender has not sent any weather packets the latest 10 day(s).
| Time | Temp. | Humidity | Pressure | Rain* | Wind** | Luminosity | Snow |
|---|---|---|---|---|---|---|---|
| 1777772209 | 17.22° C | 46% | 1012.4 hPa | 0 mm | - | 0 W/m² | - |
| 1777771907 | 17.22° C | 46% | 1012.3 hPa | 0 mm | - | 0 W/m² | - |
| 1777771604 | 17.22° C | 46% | 1012.1 hPa | 0 mm | - | 0 W/m² | - |
| 1777771301 | 17.78° C | 47% | 1011.9 hPa | 0 mm | - | 0 W/m² | - |
| 1777770998 | 17.78° C | 48% | 1011.8 hPa | 0 mm | - | 0 W/m² | - |
| 1777770695 | 17.78° C | 47% | 1011.8 hPa | 0 mm | - | 0 W/m² | - |
| 1777770391 | 17.78° C | 46% | 1011.7 hPa | 0 mm | - | 0 W/m² | - |
| 1777770088 | 18.33° C | 48% | 1011.6 hPa | 0 mm | - | 0 W/m² | - |
| 1777769785 | 18.33° C | 49% | 1011.3 hPa | 0 mm | - | 0 W/m² | - |
| 1777769483 | 18.89° C | 47% | 1011.5 hPa | 0 mm | - | 0 W/m² | - |
| 1777769178 | 18.89° C | 47% | 1011.2 hPa | 0 mm | - | 0 W/m² | - |
| 1777768878 | 18.89° C | 48% | 1011 hPa | 0 mm | - | 0 W/m² | - |
| 1777768574 | 18.89° C | 49% | 1011.1 hPa | 0 mm | - | 0 W/m² | - |
| 1777768271 | 18.89° C | 51% | 1011 hPa | 0 mm | - | 0 W/m² | - |
| 1777767968 | 19.44° C | 51% | 1010.9 hPa | 0 mm | - | 0 W/m² | - |
| 1777767664 | 19.44° C | 50% | 1010.6 hPa | 0 mm | - | 0 W/m² | - |
| 1777767360 | 20° C | 50% | 1010.4 hPa | 0 mm | - | 1 W/m² | - |
| 1777767058 | 20° C | 49% | 1010.4 hPa | 0 mm | - | 2 W/m² | - |
| 1777766755 | 20° C | 50% | 1010.2 hPa | 0 mm | - | 5 W/m² | - |
| 1777766452 | 20.56° C | 51% | 1010.1 hPa | 0 mm | - | 8 W/m² | - |
| 1777766149 | 20.56° C | 53% | 1010.1 hPa | 0 mm | - | 14 W/m² | - |
| 1777765847 | 20.56° C | 54% | 1009.9 hPa | 0 mm | - | 19 W/m² | - |
| 1777765543 | 20° C | 60% | 1009.8 hPa | 0 mm | - | 20 W/m² | - |
| 1777765241 | 20° C | 63% | 1009.6 hPa | 0 mm | - | 22 W/m² | - |
| 1777764941 | 20° C | 72% | 1009.5 hPa | 0 mm | - | 23 W/m² | - |
* Rain latest hour (hover to see other rain measurements)
** Current wind speed in m/s (hover to see current wind gust speed)